155  
ASUS46 KSEW 190810  
RWRWA  
 
WASHINGTON REGIONAL WEATHER ROUNDUP  
NATIONAL WEATHER SERVICE SEATTLE WA  
100 AM PDT TUE MAR 19 2019  
 
NOTE:"FAIR" INDICATES FEW OR NO CLOUDS BELOW 12,000 FEET WITH NO  
SIGNIFICANT WEATHER AND/OR S TO VISIBILITY
.  
 
WAZ507-509-555>559-190900-  
SEATTLE, TACOMA, EVERETT, AND VICINITY  
 
CITY SKY/WX TMP DP RH WIND PRES REMARKS
 
EVERETT CLEAR 56 24 29 VRB3 30.12S  
BOEING FIELD CLEAR 55 27 34 E3 30.10R  
RENTON CLEAR 60 25 26 N6 30.09S  
SEATAC AIRPORT CLEAR 63 21 20 E18G26 30.10R  
JBLM-MCCHORD CLEAR 42 34 75 S3 30.10R  
PUYALLUP FAIR 43 34 70 VRB3 30.09S  
BREMERTON CLEAR 42 29 59 CALM 30.12R  
JBLM-FT LEWIS CLEAR 44 34 68 CALM 30.10R  
TACOMA NARROWS CLEAR 59 25 27 CALM 30.10R  

 
 
WAZ001-503-506-510-514-515-190900-  
NORTH INTERIOR  
 
CITY SKY/WX TMP DP RH WIND PRES REMARKS
 
BELLINGHAM CLEAR 39 35 86 CALM 30.12R  
FRIDAY HARBOR CLEAR 43 34 70 CALM 30.12S  
EASTSOUND CLEAR 41 37 87 CALM 30.11S  
PORT ANGELES CLEAR 39 33 79 W3 30.10R  
EDIZ HOOK FAIR 45 37 72 SW5 30.09R  
PORT TOWNSEND FAIR 37 36 93 E6 30.11R  
NAS WHIDBEY CLEAR 47 36 65 SE9 30.15S  
ARLINGTON CLEAR 41 34 76 CALM 30.13S  
BURLINGTON CLEAR 45 32 61 CALM 30.12S  

 
 
WAZ020-022-039-040-504-511-512-190900-  
SOUTHWEST INTERIOR  
 
CITY SKY/WX TMP DP RH WIND PRES REMARKS
 
SHELTON CLEAR 54 32 43 N9 30.07S  
OLYMPIA CLEAR 36 30 79 CALM 30.08S  
CHEHALIS FAIR 45 34 65 NE5 30.08R  
KELSO CLEAR 49 32 52 CALM 30.08R  
VANCOUVER CLEAR 51 31 46 CALM 30.07S  
SCAPPOOSE, OR CLEAR 47 34 60 W6 30.07F  
PORTLAND, OR CLEAR 53 32 44 SE6 30.07R  

 
 
WAZ021-516-517-190900-  
WASHINGTON COAST  
 
CITY SKY/WX TMP DP RH WIND PRES REMARKS
 
FORKS CLEAR 44 34 67 CALM 30.03S  
HOQUIAM CLEAR 55 36 48 E13 30.03R  
ASTORIA, OR CLEAR 53 33 46 NE5 30.00F  

 
 
WAZ019-023-024-040-567>569-190900-  
CASCADE MOUNTAINS AND COLUMBIA GORGE  
 
CITY SKY/WX TMP DP RH WIND PRES REMARKS
 
STAMPEDE PASS NOT AVBL  
TROUTDALE, OR CLEAR 51 34 52 E21 30.07F  
HOOD RIVER, OR SUNNY 36 32 87 MISG 30.25S  
THE DALLES, OR CLEAR 36 31 82 CALM 30.26S  

 
 
WAZ026-027-041>044-520-521-190900-  
EAST SLOPES  
 
CITY SKY/WX TMP DP RH WIND PRES REMARKS
 
OMAK CLEAR 37 28 70 N3 30.29S  
WENATCHEE CLEAR 36 28 73 NW5 30.27F  
ELLENSBURG CLEAR 32 26 78 E5 30.25F  
YAKIMA CLEAR 33 27 78 W8 30.26F  
SUNNYSIDE ARPT SUNNY 33 32 95 CALM 30.25F  
YAKIMA TC FAIR 34 28 77 E3 30.24S  

 
 
WAZ028-034-035-190900-  
COLUMBIA BASIN  
 
CITY SKY/WX TMP DP RH WIND PRES REMARKS
 
EPHRATA CLEAR 44 28 53 NW8 30.24F  
MOSES LAKE CLEAR 33 26 75 N8 30.24F  
PASCO CLEAR 29 27 92 NW6 30.27S  
RICHLAND ARPT SUNNY 34 33 97 CALM 30.27S  
HERMISTON, OR CLEAR 33 30 88 SE3 30.24F  

 
 
WAZ036>038-190900-  
NORTHEAST WASHINGTON  
 
CITY SKY/WX TMP DP RH WIND PRES REMARKS
 
SPOKANE GEIGER CLEAR 43 24 47 E5 30.24S  
SPOKANE FELTS CLEAR 34 27 75 CALM 30.26S  
FAIRCHILD AFB CLEAR 41 23 48 NE3 30.23F  
COEURDALENE,ID CLEAR 33 26 75 NE12 30.27R WCI 24  
DEER PARK CLEAR 34 22 61 NE3 30.25S  

 
 
WAZ029>033-190900-  
SOUTHEAST WASHINGTON  
 
CITY SKY/WX TMP DP RH WIND PRES REMARKS
 
PULLMAN CLEAR 33 27 78 CALM 30.24F  
LEWISTON, ID CLEAR 39 29 67 CALM 30.25F  
WALLA WALLA CLEAR 36 31 82 E3 30.23S  
PENDLETON, OR CLEAR 32 29 88 E6 30.22F  

 
 
 
CLICK HERE TO GO TO PREVIOUS BULLETINS.

The Nexlab WA Page Main Text Page